Fort Wayne, IN

6:37 AM EDT on May 30, 2017 (GMT -0400)
Fort Wayne International

Weather History for KFWA - June, 2014

Change the Weather History Date:

Monday, June 30, 2014

  Actual Average Record
Temperature  
Mean Temperature 76 °F 74 °F  
Max Temperature 83 °F 84 °F 99 °F (1953)
Min Temperature 69 °F 63 °F 42 °F (1943)
Degree Days  
Heating Degree Days 0 0  
Month to date heating degree days 14 29  
Since 1 June heating degree days 14 29  
Since 1 July heating degree days 6965 6101  
Cooling Degree Days 11 9  
Month to date cooling degree days 230 182  
Year to date cooling degree days 311 239  
Since 1 June cooling degree days 230 182  
Growing Degree Days 26 (Base 50)    
Moisture  
Dew Point 70 °F    
Average Humidity 81    
Maximum Humidity 97    
Minimum Humidity 65    
Precipitation  
Precipitation T in 0.12 in 1.75 in (1981)
Month to date precipitation 5.81 4.16  
Year to date precipitation 22.35 18.96  
Snow  
Snow 0.00 in 0.00 in - ()
Month to date snowfall 0.0 0.0  
Since 1 June snowfall 0.0 0.0  
Since 1 July snowfall 74.7 33.5  
Snow Depth 0.00 in    
Sea Level Pressure  
Sea Level Pressure 29.89 in    
Wind  
Wind Speed 10 mph (South)    
Max Wind Speed 25 mph    
Max Gust Speed 30 mph    
Visibility 8 miles    
Events      
T = Trace of Precipitation, MM = Missing Value Source: NWS Daily Summary

Daily Weather History Graph

Daily Weather History Graph

Search for Another Location

Airport or City:

Trip Planner

Search our weather history database for the weather conditions in past years. The results will help you decide how hot, cold, wet, or windy it might be!

Date:

Astronomy

Jun. 30, 2014 Rise Set
Actual Time 6:11 AM EDT 9:16 PM EDT
Civil Twilight 5:38 AM EDT 9:50 PM EDT
Nautical Twilight 4:55 AM EDT 10:32 PM EDT
Astronomical Twilight 4:05 AM EDT 11:23 PM EDT
Moon 9:25 AM EDT 11:07 PM EDT
Length of Visible Light 16h 11m
Length of Day
15h 04m
Waxing Crescent, 10% of the Moon is Illuminated
Jun 30
Waxing Crescent
Jul 5
First Quarter
Jul 12
Full
Jul 18
Last Quarter
Jul 26
New

Hourly Weather History & Observations

Time (EDT) Temp. Heat Index Dew Point Humidity Pressure Visibility Wind Dir Wind Speed Gust Speed Precip Events Conditions
12:54 AM 73.0 °F - 70.0 °F 90% 29.95 in 10.0 mi SSW 9.2 mph - N/A   Mostly Cloudy
1:54 AM 73.0 °F - 69.1 °F 87% 29.96 in 8.0 mi SSW 5.8 mph - N/A   Mostly Cloudy
2:54 AM 71.1 °F - 68.0 °F 90% 29.97 in 7.0 mi SW 4.6 mph - N/A   Mostly Cloudy
3:54 AM 71.1 °F - 68.0 °F 90% 29.99 in 8.0 mi SW 4.6 mph - N/A   Overcast
4:54 AM 70.0 °F - 68.0 °F 93% 29.96 in 8.0 mi South 4.6 mph - N/A   Overcast
5:54 AM 69.1 °F - 66.9 °F 93% 29.99 in 7.0 mi Calm Calm - N/A   Mostly Cloudy
6:54 AM 69.1 °F - 68.0 °F 96% 29.99 in 4.0 mi South 4.6 mph - N/A   Overcast
7:54 AM 71.1 °F - 69.1 °F 93% 29.96 in 4.0 mi South 11.5 mph - N/A   Overcast
8:46 AM 72.0 °F - 68.0 °F 87% 29.94 in 8.0 mi SSW 15.0 mph - N/A   Overcast
8:54 AM 73.0 °F - 68.0 °F 84% 29.92 in 8.0 mi SSW 15.0 mph - N/A   Mostly Cloudy
9:54 AM 73.9 °F - 68.0 °F 82% 29.88 in 9.0 mi SSW 19.6 mph 27.6 mph N/A   Overcast
10:54 AM 73.0 °F - 69.1 °F 87% 29.88 in 8.0 mi SSW 19.6 mph 27.6 mph N/A   Overcast
11:54 AM 73.9 °F - 69.1 °F 85% 29.91 in 8.0 mi SSW 8.1 mph 17.3 mph 0.00 in   Overcast
12:54 PM 75.9 °F - 70.0 °F 82% 29.89 in 9.0 mi SSW 13.8 mph - N/A   Overcast
1:13 PM 77.0 °F - 71.1 °F 82% 29.90 in 8.0 mi SSW 11.5 mph - N/A   Overcast
1:54 PM 80.1 °F 83.6 °F 71.1 °F 74% 29.87 in 8.0 mi South 13.8 mph - N/A   Overcast
2:39 PM 79.0 °F - 71.1 °F 77% 29.87 in 9.0 mi South 13.8 mph - N/A   Overcast
2:54 PM 80.1 °F 83.8 °F 72.0 °F 76% 29.83 in 9.0 mi SSE 12.7 mph - N/A   Overcast
3:54 PM 82.0 °F 86.7 °F 72.0 °F 71% 29.86 in 8.0 mi SSW 12.7 mph - N/A   Mostly Cloudy
4:54 PM 82.9 °F 87.0 °F 70.0 °F 65% 29.84 in 10.0 mi South 12.7 mph - N/A   Mostly Cloudy
5:54 PM 82.0 °F 85.9 °F 70.0 °F 67% 29.83 in 10.0 mi South 11.5 mph - N/A   Mostly Cloudy
6:54 PM 82.0 °F 86.3 °F 71.1 °F 69% 29.83 in 10.0 mi South 13.8 mph - N/A   Mostly Cloudy
7:54 PM 79.0 °F - 68.0 °F 69% 29.83 in 10.0 mi South 9.2 mph - N/A   Mostly Cloudy
8:54 PM 77.0 °F - 70.0 °F 79% 29.82 in 10.0 mi South 4.6 mph - N/A   Overcast
9:54 PM 75.0 °F - 71.1 °F 87% 29.84 in 10.0 mi SSW 3.5 mph - N/A   Overcast
10:54 PM 75.9 °F - 71.1 °F 85% 29.79 in 10.0 mi SE 6.9 mph - N/A   Overcast
11:54 PM 75.0 °F - 72.0 °F 90% 29.77 in 10.0 mi SSE 11.5 mph - N/A   Overcast